Regional Weather Roundup
Issued by NWS

Home | Current Version | Previous Version | Text Only | Print | Product List | Glossary Off
Versions: 1 2 3 4 5 6 7 8 9 10 11 12 13 14 15 16 17 18 19 20 21 22 23 24 25 26 27 28 29 30 31 32 33 34 35 36 37 38 39 40 41 42 43 44 45 46 47 48 49 50

000
ASUS45 KBOU 191407
RWRCO

WEATHER ROUNDUP FOR COLORADO
NATIONAL WEATHER SERVICE DENVER/BOULDER CO
800 AM MDT TUE AUG 19 2014

NOTE: "FAIR" INDICATES FEW OR NO CLOUDS BELOW 12000 FEET WITH NO
SIGNIFICANT WEATHER AND/OR OBSTRUCTIONS TO VISIBILITY.

COZ001>005-013-030-031-191500-
...NORTHWEST COLORADO...

CITY           SKY/WX    TMP DP  RH WIND       PRES   REMARKS
CRAIG          CLOUDY    57  42  57 SE3       30.11R
HAYDEN         CLOUDY    57  39  51 E7        30.14R
MEEKER         CLOUDY    60  43  53 CALM      30.13R
MOUNT WERNER   NOT AVBL
STEAMBOAT SPGS CLOUDY    49  43  78 CALM      30.16S
WALDEN         MOSUNNY   43  36  75 E8        30.23S
$$

COZ006>008-011-191500-
...WEST CENTRAL VALLEYS...

CITY           SKY/WX    TMP DP  RH WIND       PRES   REMARKS
GRAND JUNCTION CLOUDY    73  46  38 SW6       30.01R
MONTROSE       CLOUDY    67  48  50 SE12      30.11R
EAGLE          PTSUNNY   54  41  62 CALM      30.19S
RIFLE          CLOUDY    63  45  51 CALM      30.10R
DELTA          NOT AVBL
NUCLA          CLOUDY    66  46  48 NE10      30.12F
$$

COZ017>023-064>068-191500-
...SOUTHWEST COLORADO...

CITY           SKY/WX    TMP DP  RH WIND       PRES   REMARKS
DURANGO        MOSUNNY   59  50  72 CALM      30.16S
CORTEZ         SUNNY     64  55  72 CALM      30.12S
PAGOSA SPRINGS MOSUNNY   59  46  60 CALM      30.24R
TELLURIDE      CLOUDY    52  46  82 SE6       30.33R
WOLF CREEK PAS NOT AVBL
$$

COZ009-010-012-014-032>034-037-058>063-191500-
...CENTRAL COLORADO...

CITY           SKY/WX    TMP DP  RH WIND       PRES   REMARKS
ASPEN          CLOUDY    61  39  44 S8        30.22S
BUENA VISTA    PTSUNNY   55  38  53 CALM      30.25S
COPPER MTN     PTSUNNY   52  34  50 S10       30.52S
BERTHOUD PASS  FAIR      41  41 100 W9        30.56S
COTTONWOOD PAS PTSUNNY   61  34  36 NW5G16    30.37S
GUNNISON       CLOUDY    54  39  58 N7        30.28F
KREMMLING      PTSUNNY   50  36  57 CALM      30.25R
LEADVILLE      CLOUDY    48  38  68 CALM      30.36F
MONARCH PASS   PTSUNNY   45  34  65 W26       30.60F
SALIDA         PTSUNNY   61  42  49 N7        30.29S
SUNLIGHT       CLOUDY    52  41  66 CALM      30.45R
WILKERSON PASS CLOUDY    46  34  61 W7        30.47S
$$

COZ069>075-191500-
...SAN LUIS VALLEY/SANGRE DE CRISTO MOUNTAINS...

CITY           SKY/WX    TMP DP  RH WIND       PRES   REMARKS
ALAMOSA        MOSUNNY   58  45  62 NE3       30.23S
LA VETA PASS   PTSUNNY   52  37  58 S13G18    30.36F
SAGUACHE       PTSUNNY   54  41  62 NW10      30.26F
$$

COZ035-036-038>040-191500-
...NORTHERN COLORADO FRONT RANGE...

CITY           SKY/WX    TMP DP  RH WIND       PRES   REMARKS
DENVER INTL AP PTSUNNY   64  46  52 W12       30.00R
DMNS CITY PARK   N/A     65  49  55 S5        29.99S
AURORA         PTSUNNY   64  46  53 SW7       30.02S
FRONT RANGE AP NOT AVBL
ERIE MUNI ARPT PTSUNNY   63  51  65 CALM      29.97F
BOULDER MUN AP PTSUNNY   63  50  63 CALM      29.98F
CENTENNIAL     PTSUNNY   67  46  47 CALM      30.03R
BROOMFIELD     PTSUNNY   70  43  37 NW6       30.01F
FORT COLLINS   PTSUNNY   63  50  63 CALM      29.99F
LONGMONT       PTSUNNY   65  54  67 CALM      29.98F HAZE
$$

COZ041-046-047-076>085-087-088-191500-
...PIKES PEAK/PALMER DIVIDE AND SOUTHERN FOOTHILLS...

CITY           SKY/WX    TMP DP  RH WIND       PRES   REMARKS
COLO. SPRINGS  PTSUNNY   67  50  54 NE5       30.07S
A. F. ACADEMY  PTSUNNY   64  47  54 N7        30.08F
ELLICOTT       PTSUNNY   65  50  58 MISG      30.06S
FALCON         PTSUNNY   67  51  56 CALM      30.12S
FORT CARSON    PTSUNNY   63  48  57 N6        30.05R
LIMON          CLOUDY    65  52  62 SW5       30.01R
MONUMENT HILL  PTSUNNY   64  45  48 SW8       30.11S
TRINIDAD       PTSUNNY   62  47  57 W7        30.06S
$$

COZ042>045-048>051-090-091-191500-
...NORTHEAST COLORADO...

CITY           SKY/WX    TMP DP  RH WIND       PRES   REMARKS
GREELEY ARPT   PTSUNNY   61  48  63 CALM      29.97F
AKRON          MOSUNNY   64  57  78 CALM      29.97S
BURLINGTON     PTSUNNY   64  55  72 W3        29.95S
WRAY             N/A     68  56  65 CALM      29.93F
STERLING       MOSUNNY   64  59  82 W3        29.93S
HOLYOKE        NOT AVBL
FORT MORGAN    MOSUNNY   61  55  78 CALM      29.96F
$$

COZ086-089-092>099-191500-
...SOUTHEAST COLORADO...

CITY           SKY/WX    TMP DP  RH WIND       PRES   REMARKS
PUEBLO         PTSUNNY   69  48  47 CALM      29.98S
LA JUNTA       PTSUNNY   69  54  58 W8        29.94S
LAMAR          PTSUNNY   74  47  38 SW13      29.90S
SPRINGFIELD      N/A     73  50  44 S14       29.97F
$$



USA.gov is the U.S. government's official web portal to all federal, state and local government web resources and services.